11P/Tempel-Swift-LINEAR (2001)

Japanese version
Home page
Total 6,336 html files since Dec. 4, 1995
Updated on January 10, 2002

---------------------------------------------------------------------

* Profile

Designation 11P/2001 X3
Rediscovery Date December 7, 2001
Magnitude 19.9 mag
Rediscoverer Lincoln Laboratory Near-Earth Asteroid Research project

* Orbital Elements

Epoch 2002 Jan. 6.0 TT = JDT 2452280.5
T 2001 Dec. 30.75551 TT                                 MPC
q   1.5840558            (2000.0)            P               Q
n   0.15466172     Peri.  163.63430     +0.70839272     -0.67599018
a   3.4372740      Node   240.71075     +0.61868388     +0.73314296
e   0.5391535      Incl.   13.46067     +0.33972049     +0.07442234
P   6.37
>From 25 observations 2001 Sept. 10-Dec. 19, mean residual 0".71.

* Finding Charts

* Magnitudes Graph

        m1 = 15.0 + 5 log d + 10.0 log r

---------------------------------------------------------------------

The orbital elements are calculated by Dr. Brian G. Marsden and printed on M.P.E.C. 2001-Y15.
The charts are made with StellaNavigator Ver.2.0 for Windows (AstroArts / ASCII).
The magnitudes graphs are made with Comet for Windows.

---------------------------------------------------------------------

Copyright(C) 1995-2008 Seiichi Yoshida (comet@aerith.net). All rights reserved.